This is the latest recevied weather packets stored in our database for station/object SA4AGM-10. If no packets are shown the sender has not sent any weather packets the latest 10 day(s).
| Time | Temp. | Humidity | Pressure | Rain* | Wind** | Luminosity | Snow |
|---|---|---|---|---|---|---|---|
| 1777676026 | 13.33° C | 45% | 1015.2 hPa | - | - | - | - |
| 1777675126 | 13.33° C | 43% | 1015.2 hPa | - | - | - | - |
| 1777674227 | 13.89° C | 43% | 1015.2 hPa | - | - | - | - |
| 1777673325 | 13.89° C | 43% | 1015.3 hPa | - | - | - | - |
| 1777672425 | 13.89° C | 43% | 1015.4 hPa | - | - | - | - |
| 1777671524 | 14.44° C | 42% | 1015.6 hPa | - | - | - | - |
| 1777670624 | 15° C | 40% | 1015.6 hPa | - | - | - | - |
| 1777669724 | 15.56° C | 38% | 1015.6 hPa | - | - | - | - |
| 1777668824 | 15.56° C | 37% | 1015.7 hPa | - | - | - | - |
| 1777667924 | 16.67° C | 36% | 1015.7 hPa | - | - | - | - |
| 1777667024 | 16.67° C | 36% | 1015.8 hPa | - | - | - | - |
| 1777666124 | 16.67° C | 35% | 1015.7 hPa | - | - | - | - |
| 1777665224 | 17.22° C | 34% | 1015.5 hPa | - | - | - | - |
| 1777664324 | 17.78° C | 33% | 1015.5 hPa | - | - | - | - |
| 1777663424 | 18.33° C | 32% | 1015.4 hPa | - | - | - | - |
| 1777662523 | 18.89° C | 30% | 1015.3 hPa | - | - | - | - |
| 1777661623 | 18.89° C | 30% | 1015.2 hPa | - | - | - | - |
| 1777660723 | 19.44° C | 28% | 1015.1 hPa | - | - | - | - |
| 1777659823 | 20° C | 26% | 1015 hPa | - | - | - | - |
| 1777658923 | 21.11° C | 24% | 1014.9 hPa | - | - | - | - |
| 1777658023 | 21.11° C | 25% | 1014.8 hPa | - | - | - | - |
| 1777657123 | 21.67° C | 24% | 1015.1 hPa | - | - | - | - |
| 1777656223 | 22.22° C | 24% | 1015.2 hPa | - | - | - | - |
| 1777655323 | 22.22° C | 24% | 1015 hPa | - | - | - | - |
| 1777654423 | 22.78° C | 23% | 1015.1 hPa | - | - | - | - |
* Rain since midnight (hover to see other rain measurements)
** Current wind speed in m/s (hover to see current wind gust speed)